KJ4AJP Weather Reports


time (UTC)temp
C
wind
direction
speed
KPH
gust
KPH
rain 1hr
cm
rain 24hr
cm
rain mn
cm
humidity
%
barometer
mb
20260505011902 20 41 0.0 0.0 0.00 0.00 0.00 49 1008.4
20260505011359 21 173 0.0 3.2 0.00 0.00 0.00 48 1008.3
20260505010855 21 53 0.0 0.0 0.00 0.00 0.00 47 1008.5
20260505010351 21 60 0.0 0.0 0.00 0.00 0.00 46 1008.4
20260505005847 22 46 0.0 0.0 0.00 0.00 0.00 45 1008.2
20260505005344 22 40 0.0 0.0 0.00 0.00 0.00 43 1008.3
20260505004842 22 67 0.0 0.0 0.00 0.00 0.00 42 1008.3
20260505004338 23 322 3.2 3.2 0.00 0.00 0.00 41 1008.5
20260505003835 23 4 0.0 1.6 0.00 0.00 0.00 40 1008.4
20260505003332 23 352 4.8 4.8 0.00 0.00 0.00 39 1008.4
20260505002828 23 142 1.6 3.2 0.00 0.00 0.00 39 1008.4
20260505002325 24 279 6.4 9.7 0.00 0.00 0.00 38 1008.5
20260505001824 24 334 4.8 6.4 0.00 0.00 0.00 37 1008.3
20260505001320 24 298 4.8 4.8 0.00 0.00 0.00 37 1008.4
20260505000818 24 317 6.4 9.7 0.00 0.00 0.00 36 1008.3
20260505000315 25 206 4.8 12.9 0.00 0.00 0.00 36 1008.5
20260504235812 25 337 6.4 6.4 0.00 0.00 0.00 36 1008.3
20260504235309 25 329 4.8 4.8 0.00 0.00 0.00 36 1008.3
20260504234805 25 311 3.2 4.8 0.00 0.00 0.00 36 1008.6
20260504234303 25 280 9.7 11.3 0.00 0.00 0.00 35 1008.5
20260504233759 25 314 8.0 12.9 0.00 0.00 0.00 35 1008.4
20260504233255 25 246 12.9 16.1 0.00 0.00 0.00 35 1008.7
20260504232752 25 284 19.3 24.1 0.00 0.00 0.00 33 1008.6
20260504232249 25 250 9.7 11.3 0.00 0.00 0.00 34 1008.7
20260504231746 25 305 4.8 4.8 0.00 0.00 0.00 35 1008.7
20260504231242 25 228 8.0 12.9 0.00 0.00 0.00 35 1008.7
20260504230738 26 308 14.5 24.1 0.00 0.00 0.00 34 1008.9
20260504230237 26 39 6.4 6.4 0.00 0.00 0.00 36 1008.9
20260504225735 26 208 4.8 6.4 0.00 0.00 0.00 35 1009.0
20260504225231 26 118 3.2 3.2 0.00 0.00 0.00 36 1008.8
20260504224729 26 143 8.0 11.3 0.00 0.00 0.00 34 1009.0
20260504224226 26 189 4.8 6.4 0.00 0.00 0.00 35 1009.0
20260504223722 26 124 3.2 3.2 0.00 0.00 0.00 35 1009.0
20260504223217 26 311 4.8 6.4 0.00 0.00 0.00 35 1009.0
20260504222715 26 93 8.0 12.9 0.00 0.00 0.00 34 1009.0
20260504222212 27 282 9.7 14.5 0.00 0.00 0.00 34 1008.9
20260504221709 27 339 6.4 6.4 0.00 0.00 0.00 35 1008.8
20260504221206 27 101 9.7 16.1 0.00 0.00 0.00 35 1008.8
20260504220702 27 241 6.4 6.4 0.00 0.00 0.00 35 1008.7
20260504220200 27 61 3.2 6.4 0.00 0.00 0.00 36 1008.9
20260504215656 27 30 1.6 3.2 0.00 0.00 0.00 35 1008.9
20260504215154 27 308 4.8 4.8 0.00 0.00 0.00 34 1008.7
20260504214649 27 184 6.4 9.7 0.00 0.00 0.00 34 1008.7
20260504214146 27 42 4.8 4.8 0.00 0.00 0.00 34 1008.9
20260504213643 27 199 4.8 4.8 0.00 0.00 0.00 34 1008.7
20260504213139 27 358 9.7 11.3 0.00 0.00 0.00 33 1009.0
20260504212635 27 334 14.5 20.9 0.00 0.00 0.00 32 1009.0
20260504212132 27 267 4.8 6.4 0.00 0.00 0.00 35 1008.7
20260504211630 27 202 1.6 4.8 0.00 0.00 0.00 36 1008.7
20260504211126 27 321 3.2 6.4 0.00 0.00 0.00 35 1008.6
20260504210624 27 352 11.3 16.1 0.00 0.00 0.00 33 1008.7
20260504210120 27 294 4.8 6.4 0.00 0.00 0.00 36 1008.8
20260504205618 27 306 11.3 16.1 0.00 0.00 0.00 34 1008.9
20260504205115 27 268 12.9 16.1 0.00 0.00 0.00 35 1009.0
20260504204614 27 310 6.4 11.3 0.00 0.00 0.00 35 1008.9
20260504204112 27 334 9.7 11.3 0.00 0.00 0.00 35 1009.0
20260504203610 27 235 9.7 12.9 0.00 0.00 0.00 34 1009.1
20260504203108 27 116 3.2 3.2 0.00 0.00 0.00 34 1009.3
20260504202602 27 38 3.2 6.4 0.00 0.00 0.00 37 1009.1
20260504201516 27 309 9.7 12.9 0.00 0.00 0.00 35 1009.5
20260504201014 27 309 9.7 12.9 0.00 0.00 0.00 35 1009.5
20260504200510 27 59 4.8 6.4 0.00 0.00 0.00 38 1009.4
20260504200007 27 53 3.2 6.4 0.00 0.00 0.00 36 1009.6
20260504195503 27 104 4.8 9.7 0.00 0.00 0.00 36 1009.5
20260504194959 27 290 6.4 6.4 0.00 0.00 0.00 36 1009.6
20260504194455 27 358 3.2 4.8 0.00 0.00 0.00 38 1009.7
20260504193951 27 251 8.0 11.3 0.00 0.00 0.00 36 1009.9
20260504193449 27 303 12.9 16.1 0.00 0.00 0.00 35 1009.9
20260504192947 27 316 6.4 6.4 0.00 0.00 0.00 36 1009.8
20260504192444 27 156 9.7 14.5 0.00 0.00 0.00 35 1009.9
20260504191943 27 259 4.8 11.3 0.00 0.00 0.00 38 1010.0
20260504191441 27 237 11.3 14.5 0.00 0.00 0.00 35 1010.1
20260504190935 27 333 3.2 3.2 0.00 0.00 0.00 38 1010.1
20260504190431 27 260 9.7 12.9 0.00 0.00 0.00 36 1010.0
20260504185928 27 302 9.7 12.9 0.00 0.00 0.00 35 1010.4
20260504185426 27 40 4.8 6.4 0.00 0.00 0.00 36 1010.3
20260504184921 27 284 6.4 6.4 0.00 0.00 0.00 37 1010.3
20260504184417 26 296 9.7 12.9 0.00 0.00 0.00 37 1010.4
20260504183913 26 153 4.8 6.4 0.00 0.00 0.00 38 1010.4
20260504183411 26 232 8.0 14.5 0.00 0.00 0.00 37 1010.6
20260504182909 26 349 3.2 4.8 0.00 0.00 0.00 36 1010.6
20260504182405 26 184 4.8 4.8 0.00 0.00 0.00 37 1010.4
20260504181902 26 297 11.3 14.5 0.00 0.00 0.00 37 1010.9
20260504181359 26 305 6.4 12.9 0.00 0.00 0.00 39 1010.5
20260504180858 27 24 6.4 9.7 0.00 0.00 0.00 38 1010.8
20260504180356 26 43 3.2 4.8 0.00 0.00 0.00 38 1010.8
20260504175854 26 323 11.3 16.1 0.00 0.00 0.00 37 1010.9
20260504175351 26 82 4.8 9.7 0.00 0.00 0.00 39 1010.8
20260504174849 26 329 9.7 14.5 0.00 0.00 0.00 39 1011.1
20260504174346 26 293 9.7 12.9 0.00 0.00 0.00 37 1011.0
20260504173843 26 20 6.4 11.3 0.00 0.00 0.00 39 1011.0
20260504173340 26 311 11.3 16.1 0.00 0.00 0.00 38 1011.1
20260504172837 26 37 6.4 11.3 0.00 0.00 0.00 39 1011.2
20260504172333 26 234 14.5 16.1 0.00 0.00 0.00 37 1011.3
20260504171829 26 339 9.7 17.7 0.00 0.00 0.00 38 1011.1
20260504171327 26 185 6.4 11.3 0.00 0.00 0.00 38 1011.1
20260504170824 26 223 12.9 17.7 0.00 0.00 0.00 38 1011.5
20260504170321 26 260 9.7 12.9 0.00 0.00 0.00 38 1011.6
20260504160239 25 265 8.0 11.3 0.00 0.00 0.00 43 1012.0
20260504150704 22 167 6.4 6.4 0.00 0.00 0.00 52 1012.7
20260504150201 22 200 6.4 9.7 0.00 0.00 0.00 51 1012.8
20260504141130 20 20 1.6 1.6 0.00 0.00 0.00 60 1012.5
20260504140627 20 282 6.4 6.4 0.00 0.00 0.00 59 1012.7
20260504140122 20 44 1.6 3.2 0.00 0.00 0.00 61 1012.7
20260504130551 17 55 0.0 0.0 0.00 0.00 0.00 65 1012.7
20260504110438 15 40 3.2 3.2 0.00 0.00 0.00 69 1012.0
20260504100401 15 57 1.6 1.6 0.00 0.00 0.00 67 1011.9
20260504081754 15 51 0.0 0.0 0.00 0.00 0.00 62 1012.3
20260504081251 15 105 3.2 3.2 0.00 0.00 0.00 62 1012.3
20260504080747 15 59 0.0 1.6 0.00 0.00 0.00 61 1012.3
20260504080243 15 208 3.2 4.8 0.00 0.00 0.00 61 1012.3
20260504070211 15 47 0.0 0.0 0.00 0.00 0.00 62 1012.9
20260504060132 14 65 1.6 1.6 0.00 0.00 0.00 61 1013.7
20260504050600 15 48 0.0 0.0 0.00 0.00 0.00 57 1013.8
20260504045554 15 67 0.0 1.6 0.00 0.00 0.00 57 1013.7
20260504045049 15 55 0.0 0.0 0.00 0.00 0.00 56 1013.9
20260504044547 15 50 0.0 0.0 0.00 0.00 0.00 56 1013.8
20260504044043 15 58 1.6 1.6 0.00 0.00 0.00 56 1013.8
20260504043540 15 63 1.6 1.6 0.00 0.00 0.00 56 1013.9
20260504043038 15 51 0.0 0.0 0.00 0.00 0.00 56 1013.9
20260504042535 15 56 0.0 0.0 0.00 0.00 0.00 56 1014.1
20260504042032 15 14 1.6 1.6 0.00 0.00 0.00 55 1013.9
20260504041527 15 59 0.0 1.6 0.00 0.00 0.00 56 1014.0
20260504041023 15 52 1.6 1.6 0.00 0.00 0.00 56 1014.0
20260504040521 15 49 1.6 1.6 0.00 0.00 0.00 56 1014.3
20260504040018 15 57 0.0 0.0 0.00 0.00 0.00 56 1014.1
20260504035515 15 51 1.6 1.6 0.00 0.00 0.00 55 1014.4
20260504035011 15 75 0.0 1.6 0.00 0.00 0.00 56 1014.2
20260504034509 14 69 0.0 0.0 0.00 0.00 0.00 55 1014.2
20260504034006 14 56 0.0 0.0 0.00 0.00 0.00 55 1014.2
20260504033504 14 62 0.0 0.0 0.00 0.00 0.00 56 1014.2
20260504033001 14 54 0.0 0.0 0.00 0.00 0.00 56 1014.2
20260504032457 14 61 0.0 0.0 0.00 0.00 0.00 55 1014.4
20260504031954 14 56 0.0 0.0 0.00 0.00 0.00 56 1014.4
20260504031451 14 64 0.0 0.0 0.00 0.00 0.00 57 1014.3
20260504030947 14 37 1.6 1.6 0.00 0.00 0.00 57 1014.2
20260504030445 14 67 0.0 0.0 0.00 0.00 0.00 57 1014.6
20260504025940 13 63 0.0 0.0 0.00 0.00 0.00 58 1014.3
20260504025437 13 68 0.0 0.0 0.00 0.00 0.00 57 1014.3
20260504024935 14 69 0.0 0.0 0.00 0.00 0.00 56 1014.3
20260504024432 14 66 0.0 0.0 0.00 0.00 0.00 57 1014.3
20260504023929 14 67 0.0 0.0 0.00 0.00 0.00 56 1014.4
20260504023425 14 67 0.0 0.0 0.00 0.00 0.00 56 1014.4
20260504022921 14 67 0.0 0.0 0.00 0.00 0.00 56 1014.5
20260504022417 14 67 0.0 0.0 0.00 0.00 0.00 56 1014.5
20260504021914 14 67 0.0 0.0 0.00 0.00 0.00 55 1014.3
20260504021411 15 67 0.0 0.0 0.00 0.00 0.00 54 1014.4
20260504020909 15 67 0.0 0.0 0.00 0.00 0.00 54 1014.3
20260504020405 15 67 0.0 0.0 0.00 0.00 0.00 54 1014.3
20260504015901 15 66 0.0 0.0 0.00 0.00 0.00 53 1014.2
20260504015357 15 66 0.0 0.0 0.00 0.00 0.00 51 1014.1
20260504014853 15 64 0.0 0.0 0.00 0.00 0.00 51 1014.1
20260504014349 15 64 0.0 0.0 0.00 0.00 0.00 50 1014.1
20260504013847 15 64 0.0 0.0 0.00 0.00 0.00 50 1014.0
20260504013345 16 64 0.0 0.0 0.00 0.00 0.00 49 1013.9
20260504012841 16 57 0.0 0.0 0.00 0.00 0.00 49 1014.0
20260504012339 16 55 0.0 0.0 0.00 0.00 0.00 48 1013.8